Regional Weather Roundup
Issued by NWS Northern Indiana

Home | Current Version | Previous Version | Graphics & Text | Print | Product List | Glossary On
Versions: 1 2 3 4 5 6 7 8 9 10 11 12 13 14 15 16 17 18 19 20 21 22 23 24 25 26 27 28 29 30 31 32 33 34 35 36 37 38 39 40 41 42 43 44 45 46 47 48 49 50
000
ASUS43 KIWX 030900
RWRIWX

KIWX WEATHER ROUNDUP
NATIONAL WEATHER SERVICE NORTHERN INDIANA
500 AM EDT THU SEP 03 2015

NOTE: "FAIR" INDICATES FEW OR NO CLOUDS BELOW 12,000 FEET WITH NO
SIGNIFICANT WEATHER AND/OR OBSTRUCTIONS TO VISIBILITY.

* THESE STATIONS ARE NOT UNDER NWS QUALITY CONTROL. THEY ALSO MAY NOT
  REPORT WEATHER SUCH AS PRECIPITATION OR FOG.

INZ001>027-031000-
NORTHERN INDIANA

CITY           SKY/WX    TMP DP  RH WIND       PRES   REMARKS
KNOX*          PTCLDY    68  68 100 SW5       29.98R
SOUTH BEND     CLEAR     72  68  87 SW5       29.99R
GOSHEN         PTCLDY    71  67  87 CALM      29.98S
MONTICELLO*    PTCLDY    72  70  95 S5        29.99S
ANGOLA*        CLEAR     70  61  73 CALM      29.99F
FORT WAYNE     PTCLDY    69  67  93 SW6       30.00S
PERU/GRISSOM   CLEAR     70  67  90 CALM      30.00R

$$
INZ028>050-031000-
CENTRAL INDIANA

CITY           SKY/WX    TMP DP  RH WIND       PRES   REMARKS
LAFAYETTE      PTCLDY    70  67  90 CALM      30.00R
KOKOMO*        CLEAR     70  64  83 SW8       30.01S
MUNCIE*        CLEAR     68  66  93 CALM      30.02R
INDIANAPOLIS   CLEAR     70  67  90 W6        30.01S

$$
MIZ043>046-050>051-056>058-064>065-071>073-077>080-031000-
SOUTHWEST LOWER MICHIGAN

CITY           SKY/WX    TMP DP  RH WIND       PRES   REMARKS
BATTLE CREEK   CLEAR     71  68  90 CALM      29.98F
BENTON HARBOR  CLOUDY    72  68  87 CALM      29.96S
COLDWATER*     PTCLDY    68  68  99 CALM      29.99S
HILLSDALE*     CLEAR     68  68 100 W3        30.00S FOG
HOLLAND        PTCLDY    69  66  90 CALM      29.96S
GRAND RAPIDS   PTCLDY    71  69  93 S3        29.96S FOG
KALAMAZOO      CLEAR     71  68  90 S5        29.98S
STURGIS*       PTCLDY    68  66  94 CALM      29.98S
THREE RIVERS*  FAIR      69  67  94 CALM      29.98S

$$
OHZ001>008-015>018-024>025-031000-
NORTHWEST OHIO

CITY           SKY/WX    TMP DP  RH WIND       PRES   REMARKS
DEFIANCE       PTCLDY    70  66  87 S3        29.99S
FINDLAY        CLOUDY    71  66  84 CALM      29.99S
TOLEDO EXPRESS CLOUDY    71  68  90 SW5       29.97F
TOLEDO METCALF CLOUDY    72  67  84 SW3       29.98F
LIMA           PTCLDY    69  66  90 S3        30.01S

$$
AND FOR LAKE MICHIGAN COASTAL AND OPEN LAKE BUOY OBSERVATIONS

STATION/POSITION TEMP    WIND        PRES    VSBY  WAVE
                 AIR SEA DIR/SP/G                  HT/PER
                 (F)     (DEG/KT/KT) (MB)    (MI)  (FT/S)
CALUMET HARBOR    76     220/  4/  6   N/A
MICHIGAN CITY     76     180/ 10/ 11   N/A
BURNS HARBOR      77     210/ 11/ 15 1014.9S
SAINT JOSEPH      77     170/  7/ 10 1014.6F
SOUTH LAKE BUOY   74 71  200/ 10/ 10 1012.9F         0
4 MI NW BRIDGMAN  75 74  240/  6/  8   N/A           1
MICHIGAN CITY     75 73  230/  8/ 10   N/A           1

$$
&&


USA.gov is the U.S. government's official web portal to all federal, state and local government web resources and services.